Time,TemperatureF,DewpointF,PressureIn,WindDirection,WindDirectionDegrees,WindSpeedMPH,WindSpeedGustMPH,Humidity,HourlyPrecipIn,Conditions,Clouds,dailyrainin,SoftwareType,DateUTC
2013-01-09 00:05:00,29.1,16.2,30.28,East,80,0.0,0.0,58,0.00,,---,0.00,VWS V14.00,2013-01-09 07:05:00,
2013-01-09 00:12:00,29.0,16.1,30.29,North,0,0.0,0.0,58,0.00,,---,0.00,VWS V14.00,2013-01-09 07:12:00,
2013-01-09 00:17:00,28.9,16.0,30.29,East,80,0.0,0.0,58,0.00,,---,0.00,VWS V14.00,2013-01-09 07:17:00,
2013-01-09 00:22:00,28.9,16.0,30.29,East,80,0.0,0.0,58,0.00,,---,0.00,VWS V14.00,2013-01-09 07:22:00,
2013-01-09 00:27:00,28.8,15.9,30.29,East,80,0.0,0.0,58,0.00,,---,0.00,VWS V14.00,2013-01-09 07:27:00,
2013-01-09 00:32:00,28.7,15.8,30.30,East,80,0.0,0.0,58,0.00,,---,0.00,VWS V14.00,2013-01-09 07:32:00,
2013-01-09 00:37:00,28.6,15.7,30.30,East,80,0.0,0.0,58,0.00,,---,0.00,VWS V14.00,2013-01-09 07:37:00,
2013-01-09 00:42:00,28.5,15.6,30.30,East,80,0.0,0.0,58,0.00,,---,0.00,VWS V14.00,2013-01-09 07:42:00,
2013-01-09 00:47:00,28.3,15.4,30.31,East,80,0.0,0.0,58,0.00,,---,0.00,VWS V14.00,2013-01-09 07:47:00,
2013-01-09 00:53:00,28.1,15.2,30.31,East,80,0.0,0.0,58,0.00,,---,0.00,VWS V14.00,2013-01-09 07:53:00,
2013-01-09 00:58:00,28.0,15.1,30.31,East,80,0.0,0.0,58,0.00,,---,0.00,VWS V14.00,2013-01-09 07:58:00,
2013-01-09 01:03:00,27.8,15.0,30.31,East,80,0.0,0.0,58,0.00,,---,0.00,VWS V14.00,2013-01-09 08:03:00,
2013-01-09 01:08:00,27.7,15.3,30.31,East,80,0.0,0.0,59,0.00,,---,0.00,VWS V14.00,2013-01-09 08:08:00,
2013-01-09 01:13:00,27.5,15.1,30.31,East,80,0.0,0.0,59,0.00,,---,0.00,VWS V14.00,2013-01-09 08:13:00,
2013-01-09 01:18:00,27.4,15.0,30.32,East,80,0.0,0.0,59,0.00,,---,0.00,VWS V14.00,2013-01-09 08:18:00,
2013-01-09 01:23:00,27.3,14.9,30.32,East,80,0.0,0.0,59,0.00,,---,0.00,VWS V14.00,2013-01-09 08:23:00,
2013-01-09 01:28:00,27.1,14.7,30.32,East,80,0.0,0.0,59,0.00,,---,0.00,VWS V14.00,2013-01-09 08:28:00,
2013-01-09 01:33:00,27.0,15.0,30.33,East,80,0.0,0.0,60,0.00,,---,0.00,VWS V14.00,2013-01-09 08:33:00,
2013-01-09 01:38:00,26.9,14.9,30.33,East,80,0.0,0.0,60,0.00,,---,0.00,VWS V14.00,2013-01-09 08:38:00,
2013-01-09 01:43:00,26.7,14.7,30.33,East,80,0.0,0.0,60,0.00,,---,0.00,VWS V14.00,2013-01-09 08:43:00,
2013-01-09 01:48:00,26.6,14.6,30.33,East,80,0.0,0.0,60,0.00,,---,0.00,VWS V14.00,2013-01-09 08:48:00,
2013-01-09 01:53:00,26.4,14.4,30.33,East,80,0.0,0.0,60,0.00,,---,0.00,VWS V14.00,2013-01-09 08:53:00,
2013-01-09 01:58:00,26.3,14.7,30.33,East,80,0.0,0.0,61,0.00,,---,0.00,VWS V14.00,2013-01-09 08:58:00,
2013-01-09 02:03:00,26.2,14.6,30.33,East,80,0.0,0.0,61,0.00,,---,0.00,VWS V14.00,2013-01-09 09:03:00,
2013-01-09 02:08:00,26.1,14.5,30.32,East,80,0.0,0.0,61,0.00,,---,0.00,VWS V14.00,2013-01-09 09:08:00,
2013-01-09 02:13:00,26.0,14.4,30.32,East,80,0.0,0.0,61,0.00,,---,0.00,VWS V14.00,2013-01-09 09:13:00,
2013-01-09 02:18:00,25.9,14.3,30.33,East,80,0.0,0.0,61,0.00,,---,0.00,VWS V14.00,2013-01-09 09:18:00,
2013-01-09 02:23:00,25.8,14.6,30.33,East,80,0.0,0.0,62,0.00,,---,0.00,VWS V14.00,2013-01-09 09:23:00,
2013-01-09 02:28:00,25.7,14.5,30.33,East,80,0.0,0.0,62,0.00,,---,0.00,VWS V14.00,2013-01-09 09:28:00,
2013-01-09 02:33:00,25.6,14.4,30.33,East,80,0.0,0.0,62,0.00,,---,0.00,VWS V14.00,2013-01-09 09:33:00,
2013-01-09 02:38:00,25.6,14.4,30.32,East,80,0.0,0.0,62,0.00,,---,0.00,VWS V14.00,2013-01-09 09:38:00,
2013-01-09 02:43:00,25.6,14.8,30.32,East,80,0.0,0.0,63,0.00,,---,0.00,VWS V14.00,2013-01-09 09:43:00,
2013-01-09 02:48:00,25.6,14.8,30.33,East,80,0.0,0.0,63,0.00,,---,0.00,VWS V14.00,2013-01-09 09:48:00,
2013-01-09 02:53:00,25.6,14.8,30.33,East,80,0.0,0.0,63,0.00,,---,0.00,VWS V14.00,2013-01-09 09:53:00,
2013-01-09 02:58:00,25.8,15.3,30.33,East,80,0.0,1.0,64,0.00,,---,0.00,VWS V14.00,2013-01-09 09:58:00,
2013-01-09 03:03:00,25.9,15.1,30.35,East,80,0.0,0.0,63,0.00,,---,0.00,VWS V14.00,2013-01-09 10:03:00,
2013-01-09 03:08:00,26.0,15.1,30.35,East,80,0.0,0.0,63,0.00,,---,0.00,VWS V14.00,2013-01-09 10:08:00,
2013-01-09 03:13:00,25.9,15.1,30.35,East,80,0.0,0.0,63,0.00,,---,0.00,VWS V14.00,2013-01-09 10:13:00,
2013-01-09 03:18:00,25.9,15.1,30.35,East,80,0.0,0.0,63,0.00,,---,0.00,VWS V14.00,2013-01-09 10:18:00,
2013-01-09 03:23:00,25.8,15.0,30.35,East,80,0.0,0.0,63,0.00,,---,0.00,VWS V14.00,2013-01-09 10:23:00,
2013-01-09 03:28:00,25.8,15.0,30.35,East,80,0.0,0.0,63,0.00,,---,0.00,VWS V14.00,2013-01-09 10:28:00,
2013-01-09 03:33:00,25.8,15.0,30.35,East,80,0.0,0.0,63,0.00,,---,0.00,VWS V14.00,2013-01-09 10:33:00,
2013-01-09 03:38:00,25.7,14.9,30.35,East,80,0.0,0.0,63,0.00,,---,0.00,VWS V14.00,2013-01-09 10:38:00,
2013-01-09 03:43:00,25.6,14.8,30.35,East,80,0.0,0.0,63,0.00,,---,0.00,VWS V14.00,2013-01-09 10:43:00,
2013-01-09 03:48:00,25.5,14.7,30.35,East,80,0.0,0.0,63,0.00,,---,0.00,VWS V14.00,2013-01-09 10:48:00,
2013-01-09 03:53:00,25.4,14.6,30.35,East,80,0.0,0.0,63,0.00,,---,0.00,VWS V14.00,2013-01-09 10:53:00,
2013-01-09 03:58:00,25.4,14.9,30.35,East,80,0.0,0.0,64,0.00,,---,0.00,VWS V14.00,2013-01-09 10:58:00,
2013-01-09 04:03:00,25.3,14.8,30.38,East,80,0.0,0.0,64,0.00,,---,0.00,VWS V14.00,2013-01-09 11:03:00,
2013-01-09 04:08:00,25.2,14.8,30.38,East,80,0.0,0.0,64,0.00,,---,0.00,VWS V14.00,2013-01-09 11:08:00,
2013-01-09 04:13:00,25.2,14.8,30.38,East,80,0.0,0.0,64,0.00,,---,0.00,VWS V14.00,2013-01-09 11:13:00,
2013-01-09 04:18:00,25.1,14.6,30.38,East,80,0.0,0.0,64,0.00,,---,0.00,VWS V14.00,2013-01-09 11:18:00,
2013-01-09 04:23:00,25.0,14.6,30.38,East,80,0.0,0.0,64,0.00,,---,0.00,VWS V14.00,2013-01-09 11:23:00,
2013-01-09 04:28:00,24.9,14.5,30.38,East,80,0.0,0.0,64,0.00,,---,0.00,VWS V14.00,2013-01-09 11:28:00,
2013-01-09 04:33:00,24.7,14.3,30.38,East,80,0.0,0.0,64,0.00,,---,0.00,VWS V14.00,2013-01-09 11:33:00,
2013-01-09 04:38:00,24.6,14.2,30.38,East,80,0.0,0.0,64,0.00,,---,0.00,VWS V14.00,2013-01-09 11:38:00,
2013-01-09 04:43:00,24.4,14.0,30.39,East,80,0.0,0.0,64,0.00,,---,0.00,VWS V14.00,2013-01-09 11:43:00,
2013-01-09 04:48:00,24.2,14.1,30.38,East,80,0.0,0.0,65,0.00,,---,0.00,VWS V14.00,2013-01-09 11:48:00,
2013-01-09 04:53:00,24.1,14.1,30.39,East,80,0.0,0.0,65,0.00,,---,0.00,VWS V14.00,2013-01-09 11:53:00,
2013-01-09 04:58:00,23.9,14.2,30.39,East,80,0.0,0.0,66,0.00,,---,0.00,VWS V14.00,2013-01-09 11:58:00,
2013-01-09 05:03:00,23.8,14.1,30.42,East,80,0.0,0.0,66,0.00,,---,0.00,VWS V14.00,2013-01-09 12:03:00,
2013-01-09 05:08:00,23.6,13.9,30.43,East,80,0.0,0.0,66,0.00,,---,0.00,VWS V14.00,2013-01-09 12:08:00,
2013-01-09 05:13:00,23.5,13.8,30.43,East,80,0.0,0.0,66,0.00,,---,0.00,VWS V14.00,2013-01-09 12:13:00,
2013-01-09 05:18:00,23.4,13.7,30.43,East,80,0.0,0.0,66,0.00,,---,0.00,VWS V14.00,2013-01-09 12:18:00,
2013-01-09 05:23:00,23.3,13.6,30.43,East,80,0.0,0.0,66,0.00,,---,0.00,VWS V14.00,2013-01-09 12:23:00,
2013-01-09 05:28:00,23.1,13.4,30.43,East,80,0.0,0.0,66,0.00,,---,0.00,VWS V14.00,2013-01-09 12:28:00,
2013-01-09 05:33:00,23.1,13.8,30.43,East,80,0.0,0.0,67,0.00,,---,0.00,VWS V14.00,2013-01-09 12:33:00,
2013-01-09 05:38:00,23.1,13.8,30.43,East,80,0.0,0.0,67,0.00,,---,0.00,VWS V14.00,2013-01-09 12:38:00,
2013-01-09 05:43:00,23.0,15.6,30.43,East,80,0.0,0.0,73,0.00,,---,0.00,VWS V14.00,2013-01-09 12:43:00,
2013-01-09 05:48:00,22.9,13.6,30.43,East,80,0.0,0.0,67,0.00,,---,0.00,VWS V14.00,2013-01-09 12:48:00,
2013-01-09 05:53:00,22.9,13.9,30.43,East,80,0.0,0.0,68,0.00,,---,0.00,VWS V14.00,2013-01-09 12:53:00,
2013-01-09 05:58:00,22.8,13.8,30.43,East,80,0.0,0.0,68,0.00,,---,0.00,VWS V14.00,2013-01-09 12:58:00,
2013-01-09 06:03:00,22.7,13.7,30.46,East,80,0.0,0.0,68,0.00,,---,0.00,VWS V14.00,2013-01-09 13:03:00,
2013-01-09 06:08:00,22.6,13.6,30.46,East,80,0.0,0.0,68,0.00,,---,0.00,VWS V14.00,2013-01-09 13:08:00,
2013-01-09 06:13:00,22.5,13.6,30.46,East,80,0.0,0.0,68,0.00,,---,0.00,VWS V14.00,2013-01-09 13:13:00,
2013-01-09 06:18:00,22.4,13.4,30.46,East,80,0.0,0.0,68,0.00,,---,0.00,VWS V14.00,2013-01-09 13:18:00,
2013-01-09 06:23:00,22.4,13.4,30.48,East,80,0.0,0.0,68,0.00,,---,0.00,VWS V14.00,2013-01-09 13:23:00,
2013-01-09 06:28:00,22.3,13.4,30.48,East,80,0.0,0.0,68,0.00,,---,0.00,VWS V14.00,2013-01-09 13:28:00,
2013-01-09 06:33:00,22.1,13.2,30.48,East,80,0.0,0.0,68,0.00,,---,0.00,VWS V14.00,2013-01-09 13:33:00,
2013-01-09 06:38:00,22.1,13.5,30.48,East,80,0.0,0.0,69,0.00,,---,0.00,VWS V14.00,2013-01-09 13:38:00,
2013-01-09 06:43:00,22.0,13.4,30.48,East,80,0.0,0.0,69,0.00,,---,0.00,VWS V14.00,2013-01-09 13:43:00,
2013-01-09 06:48:00,22.0,13.4,30.48,East,80,0.0,0.0,69,0.00,,---,0.00,VWS V14.00,2013-01-09 13:48:00,
2013-01-09 06:53:00,21.9,13.3,30.48,East,80,0.0,0.0,69,0.00,,---,0.00,VWS V14.00,2013-01-09 13:53:00,
2013-01-09 06:58:00,21.9,13.3,30.48,East,80,0.0,0.0,69,0.00,,---,0.00,VWS V14.00,2013-01-09 13:58:00,
2013-01-09 07:03:00,21.8,13.2,30.50,East,80,0.0,0.0,69,0.00,,---,0.00,VWS V14.00,2013-01-09 14:03:00,
2013-01-09 07:08:00,21.8,13.2,30.50,East,80,0.0,0.0,69,0.00,,---,0.00,VWS V14.00,2013-01-09 14:08:00,
2013-01-09 07:13:00,21.8,13.2,30.50,East,80,0.0,0.0,69,0.00,,---,0.00,VWS V14.00,2013-01-09 14:13:00,
2013-01-09 07:18:00,22.1,13.8,30.50,East,80,0.0,0.0,70,0.00,,---,0.00,VWS V14.00,2013-01-09 14:18:00,
2013-01-09 07:23:00,22.1,13.5,30.50,East,80,0.0,0.0,69,0.00,,---,0.00,VWS V14.00,2013-01-09 14:23:00,
2013-01-09 07:28:00,22.1,13.5,30.50,East,80,0.0,0.0,69,0.00,,---,0.00,VWS V14.00,2013-01-09 14:28:00,
2013-01-09 07:33:00,22.1,13.5,30.50,East,80,0.0,0.0,69,0.00,,---,0.00,VWS V14.00,2013-01-09 14:33:00,
2013-01-09 07:38:00,22.1,13.5,30.51,East,80,0.0,0.0,69,0.00,,---,0.00,VWS V14.00,2013-01-09 14:38:00,
2013-01-09 07:43:00,22.0,13.4,30.52,East,80,0.0,0.0,69,0.00,,---,0.00,VWS V14.00,2013-01-09 14:43:00,
2013-01-09 07:48:00,22.2,13.9,30.52,East,80,0.0,0.0,70,0.00,,---,0.00,VWS V14.00,2013-01-09 14:48:00,
2013-01-09 07:53:00,22.4,14.1,30.52,East,80,0.0,0.0,70,0.00,,---,0.00,VWS V14.00,2013-01-09 14:53:00,
2013-01-09 07:58:00,23.9,15.6,30.51,East,80,0.0,0.0,70,0.00,,---,0.00,VWS V14.00,2013-01-09 14:58:00,
2013-01-09 08:04:00,25.7,16.3,30.51,East,80,0.0,1.0,67,0.00,,---,0.00,VWS V14.00,2013-01-09 15:04:00,
2013-01-09 08:09:00,26.4,16.6,30.51,East,80,0.0,0.0,66,0.00,,---,0.00,VWS V14.00,2013-01-09 15:09:00,
2013-01-09 08:14:00,27.3,17.1,30.50,East,80,0.0,0.0,65,0.00,,---,0.00,VWS V14.00,2013-01-09 15:14:00,
2013-01-09 08:19:00,28.4,17.4,30.50,East,80,0.0,0.0,63,0.00,,---,0.00,VWS V14.00,2013-01-09 15:19:00,
2013-01-09 08:24:00,29.3,18.3,30.49,East,80,0.0,1.0,63,0.00,,---,0.00,VWS V14.00,2013-01-09 15:24:00,
2013-01-09 08:29:00,30.1,18.3,30.49,East,80,1.0,2.0,61,0.00,,---,0.00,VWS V14.00,2013-01-09 15:29:00,
2013-01-09 08:34:00,30.9,18.7,30.48,East,80,0.0,2.0,60,0.00,,---,0.00,VWS V14.00,2013-01-09 15:34:00,
2013-01-09 08:39:00,31.7,19.0,30.48,East,95,0.0,1.0,59,0.00,,---,0.00,VWS V14.00,2013-01-09 15:39:00,
2013-01-09 08:44:00,32.6,19.5,30.47,SSE,163,0.0,2.0,58,0.00,,---,0.00,VWS V14.00,2013-01-09 15:44:00,
2013-01-09 08:50:00,33.3,19.7,30.48,SSE,163,2.0,2.0,57,0.00,,---,0.00,VWS V14.00,2013-01-09 15:50:00,
2013-01-09 08:55:00,33.9,19.9,30.48,SSE,163,0.0,1.0,56,0.00,,---,0.00,VWS V14.00,2013-01-09 15:55:00,
2013-01-09 09:01:00,34.5,19.6,30.48,SSE,164,0.0,2.0,54,0.00,,---,0.00,VWS V14.00,2013-01-09 16:01:00,
2013-01-09 09:07:00,35.8,19.9,30.46,South,171,0.0,4.0,52,0.00,,---,0.00,VWS V14.00,2013-01-09 16:07:00,
2013-01-09 09:12:00,36.6,20.2,30.45,South,171,0.0,2.0,51,0.00,,---,0.00,VWS V14.00,2013-01-09 16:12:00,
2013-01-09 09:17:00,37.5,20.1,30.44,South,171,0.0,1.0,49,0.00,,---,0.00,VWS V14.00,2013-01-09 16:17:00,
2013-01-09 09:22:00,38.2,19.8,30.44,SW,236,0.0,5.0,47,0.00,,---,0.00,VWS V14.00,2013-01-09 16:22:00,
2013-01-09 09:28:00,39.1,19.6,30.44,South,190,2.0,3.0,45,0.00,,---,0.00,VWS V14.00,2013-01-09 16:28:00,
2013-01-09 09:33:00,39.6,19.5,30.43,SSW,211,6.0,6.0,44,0.00,,---,0.00,VWS V14.00,2013-01-09 16:33:00,
2013-01-09 09:38:00,40.2,19.5,30.43,SSE,166,0.0,1.0,43,0.00,,---,0.00,VWS V14.00,2013-01-09 16:38:00,
2013-01-09 09:44:00,41.1,19.8,30.42,SSW,196,10.0,10.0,42,0.00,,---,0.00,VWS V14.00,2013-01-09 16:44:00,
2013-01-09 09:49:00,41.7,19.2,30.41,South,184,1.0,4.0,40,0.00,,---,0.00,VWS V14.00,2013-01-09 16:49:00,
2013-01-09 09:55:00,42.2,18.4,30.41,South,187,2.0,3.0,38,0.00,,---,0.00,VWS V14.00,2013-01-09 16:55:00,
2013-01-09 10:01:00,42.7,18.9,30.43,South,186,2.0,2.0,38,0.00,,---,0.00,VWS V14.00,2013-01-09 17:01:00,
2013-01-09 10:07:00,43.5,19.0,30.41,South,186,0.0,0.0,37,0.00,,---,0.00,VWS V14.00,2013-01-09 17:07:00,
2013-01-09 10:13:00,44.3,19.0,30.41,SSW,195,0.0,4.0,36,0.00,,---,0.00,VWS V14.00,2013-01-09 17:13:00,
2013-01-09 10:18:00,44.7,19.4,30.41,South,180,0.0,3.0,36,0.00,,---,0.00,VWS V14.00,2013-01-09 17:18:00,
2013-01-09 10:23:00,44.9,18.9,30.41,South,176,4.0,5.0,35,0.00,,---,0.00,VWS V14.00,2013-01-09 17:23:00,
2013-01-09 10:28:00,45.2,19.9,30.41,South,184,0.0,1.0,36,0.00,,---,0.00,VWS V14.00,2013-01-09 17:28:00,
2013-01-09 10:33:00,45.8,20.4,30.39,South,176,0.0,1.0,36,0.00,,---,0.00,VWS V14.00,2013-01-09 17:33:00,
2013-01-09 10:38:00,46.5,20.3,30.38,South,175,2.0,4.0,35,0.00,,---,0.00,VWS V14.00,2013-01-09 17:38:00,
2013-01-09 10:43:00,46.9,20.7,30.37,SE,133,0.0,1.0,35,0.00,,---,0.00,VWS V14.00,2013-01-09 17:43:00,
2013-01-09 10:49:00,47.5,20.5,30.37,SSE,157,2.0,3.0,34,0.00,,---,0.00,VWS V14.00,2013-01-09 17:49:00,
2013-01-09 10:54:00,47.8,20.8,30.35,South,182,2.0,7.0,34,0.00,,---,0.00,VWS V14.00,2013-01-09 17:54:00,
2013-01-09 10:59:00,48.3,21.2,30.35,South,188,0.0,5.0,34,0.00,,---,0.00,VWS V14.00,2013-01-09 17:59:00,
2013-01-09 11:04:00,48.4,21.3,30.36,SE,144,0.0,2.0,34,0.00,,---,0.00,VWS V14.00,2013-01-09 18:04:00,
2013-01-09 11:09:00,48.6,20.8,30.34,SSW,199,0.0,3.0,33,0.00,,---,0.00,VWS V14.00,2013-01-09 18:09:00,
2013-01-09 11:14:00,48.6,20.8,30.33,SSE,155,0.0,3.0,33,0.00,,---,0.00,VWS V14.00,2013-01-09 18:14:00,
2013-01-09 11:19:00,49.2,20.6,30.33,South,175,0.0,2.0,32,0.00,,---,0.00,VWS V14.00,2013-01-09 18:19:00,
2013-01-09 11:24:00,49.6,21.0,30.33,South,178,0.0,3.0,32,0.00,,---,0.00,VWS V14.00,2013-01-09 18:24:00,
2013-01-09 11:29:00,50.1,20.7,30.32,SSW,202,0.0,1.0,31,0.00,,---,0.00,VWS V14.00,2013-01-09 18:29:00,
2013-01-09 11:34:00,50.7,21.2,30.31,SW,214,2.0,4.0,31,0.00,,---,0.00,VWS V14.00,2013-01-09 18:34:00,
2013-01-09 11:39:00,51.2,20.9,30.30,SSW,206,0.0,7.0,30,0.00,,---,0.00,VWS V14.00,2013-01-09 18:39:00,
2013-01-09 11:41:00,51.2,20.9,30.30,SSW,197,0.0,2.0,30,0.00,,---,0.00,VWS V14.00,2013-01-09 18:41:00,
2013-01-09 11:43:00,51.3,20.9,30.29,SSE,163,3.0,3.0,30,0.00,,---,0.00,VWS V14.00,2013-01-09 18:43:00,
2013-01-09 11:44:00,51.4,21.0,30.29,South,169,0.0,3.0,30,0.00,,---,0.00,VWS V14.00,2013-01-09 18:44:00,
2013-01-09 11:45:00,51.6,21.2,30.29,SSE,166,0.0,3.0,30,0.00,,---,0.00,VWS V14.00,2013-01-09 18:45:00,
2013-01-09 11:46:00,51.6,21.2,30.29,SSE,163,0.0,1.0,30,0.00,,---,0.00,VWS V14.00,2013-01-09 18:46:00,
2013-01-09 11:48:00,52.1,21.6,30.29,ESE,115,0.0,2.0,30,0.00,,---,0.00,VWS V14.00,2013-01-09 18:48:00,
2013-01-09 11:49:00,52.3,21.8,30.29,ESE,115,0.0,1.0,30,0.00,,---,0.00,VWS V14.00,2013-01-09 18:49:00,
2013-01-09 11:52:00,53.0,21.6,30.27,South,188,0.0,3.0,29,0.00,,---,0.00,VWS V14.00,2013-01-09 18:52:00,
2013-01-09 11:57:00,53.4,21.1,30.27,South,179,0.0,3.0,28,0.00,,---,0.00,VWS V14.00,2013-01-09 18:57:00,
2013-01-09 12:02:00,53.8,21.5,30.26,SSE,161,1.0,1.0,28,0.00,,---,0.00,VWS V14.00,2013-01-09 19:02:00,
2013-01-09 12:07:00,54.2,21.0,30.26,ESE,115,0.0,5.0,27,0.00,,---,0.00,VWS V14.00,2013-01-09 19:07:00,
2013-01-09 12:12:00,55.1,20.9,30.26,SW,229,1.0,3.0,26,0.00,,---,0.00,VWS V14.00,2013-01-09 19:12:00,
2013-01-09 12:17:00,56.1,21.7,30.24,SE,130,1.0,2.0,26,0.00,,---,0.00,VWS V14.00,2013-01-09 19:17:00,
2013-01-09 12:22:00,56.3,21.9,30.24,SSW,198,2.0,2.0,26,0.00,,---,0.00,VWS V14.00,2013-01-09 19:22:00,
2013-01-09 12:27:00,57.2,22.6,30.24,SSE,151,1.0,3.0,26,0.00,,---,0.00,VWS V14.00,2013-01-09 19:27:00,
2013-01-09 12:32:00,58.0,21.4,30.21,SSW,198,0.0,5.0,24,0.00,,---,0.00,VWS V14.00,2013-01-09 19:32:00,
2013-01-09 12:37:00,58.2,21.6,30.21,SSE,155,0.0,5.0,24,0.00,,---,0.00,VWS V14.00,2013-01-09 19:37:00,
2013-01-09 12:42:00,58.1,21.5,30.20,South,173,0.0,3.0,24,0.00,,---,0.00,VWS V14.00,2013-01-09 19:42:00,
2013-01-09 12:47:00,58.9,21.2,30.20,SSW,209,2.0,4.0,23,0.00,,---,0.00,VWS V14.00,2013-01-09 19:47:00,
2013-01-09 12:52:00,59.0,21.3,30.20,SW,226,5.0,11.0,23,0.00,,---,0.00,VWS V14.00,2013-01-09 19:52:00,
2013-01-09 12:57:00,59.3,21.5,30.19,South,181,1.0,3.0,23,0.00,,---,0.00,VWS V14.00,2013-01-09 19:57:00,
2013-01-09 13:02:00,59.7,20.8,30.19,South,173,3.0,9.0,22,0.00,,---,0.00,VWS V14.00,2013-01-09 20:02:00,
2013-01-09 13:07:00,60.3,22.4,30.19,SSW,193,1.0,4.0,23,0.00,,---,0.00,VWS V14.00,2013-01-09 20:07:00,
2013-01-09 13:12:00,60.6,22.6,30.18,SE,125,1.0,1.0,23,0.00,,---,0.00,VWS V14.00,2013-01-09 20:12:00,
2013-01-09 13:17:00,61.3,22.2,30.18,SSE,162,0.0,2.0,22,0.00,,---,0.00,VWS V14.00,2013-01-09 20:17:00,
2013-01-09 13:22:00,61.2,23.1,30.18,SSE,161,0.0,1.0,23,0.00,,---,0.00,VWS V14.00,2013-01-09 20:22:00,
2013-01-09 13:27:00,61.1,22.0,30.17,SSW,210,1.0,4.0,22,0.00,,---,0.00,VWS V14.00,2013-01-09 20:27:00,
2013-01-09 13:32:00,61.8,22.6,30.16,SSW,208,0.0,2.0,22,0.00,,---,0.00,VWS V14.00,2013-01-09 20:32:00,
2013-01-09 13:37:00,61.9,21.6,30.15,SSE,158,0.0,3.0,21,0.00,,---,0.00,VWS V14.00,2013-01-09 20:37:00,
2013-01-09 13:42:00,62.2,21.8,30.15,SE,133,0.0,2.0,21,0.00,,---,0.00,VWS V14.00,2013-01-09 20:42:00,
2013-01-09 13:47:00,62.1,20.6,30.15,South,188,0.0,6.0,20,0.00,,---,0.00,VWS V14.00,2013-01-09 20:47:00,
2013-01-09 13:52:00,62.7,21.1,30.15,SSW,202,0.0,2.0,20,0.00,,---,0.00,VWS V14.00,2013-01-09 20:52:00,
2013-01-09 13:57:00,62.7,22.2,30.15,SSW,202,0.0,2.0,21,0.00,,---,0.00,VWS V14.00,2013-01-09 20:57:00,
2013-01-09 14:02:00,63.0,21.3,30.15,SSW,192,0.0,1.0,20,0.00,,---,0.00,VWS V14.00,2013-01-09 21:02:00,
2013-01-09 14:07:00,62.9,22.4,30.15,SSE,156,0.0,2.0,21,0.00,,---,0.00,VWS V14.00,2013-01-09 21:07:00,
2013-01-09 14:12:00,62.9,21.2,30.15,SSW,209,0.0,2.0,20,0.00,,---,0.00,VWS V14.00,2013-01-09 21:12:00,
2013-01-09 14:17:00,63.3,21.6,30.14,SE,143,0.0,2.0,20,0.00,,---,0.00,VWS V14.00,2013-01-09 21:17:00,
2013-01-09 14:22:00,63.6,20.6,30.13,SSE,167,1.0,2.0,19,0.00,,---,0.00,VWS V14.00,2013-01-09 21:22:00,
2013-01-09 14:27:00,63.5,20.5,30.13,SSE,163,0.0,1.0,19,0.00,,---,0.00,VWS V14.00,2013-01-09 21:27:00,
2013-01-09 14:32:00,63.4,20.5,30.14,SSE,153,0.0,2.0,19,0.00,,---,0.00,VWS V14.00,2013-01-09 21:32:00,
2013-01-09 14:37:00,63.4,20.5,30.14,SSE,151,0.0,1.0,19,0.00,,---,0.00,VWS V14.00,2013-01-09 21:37:00,
2013-01-09 14:42:00,63.8,20.8,30.13,SSE,156,0.0,2.0,19,0.00,,---,0.00,VWS V14.00,2013-01-09 21:42:00,
2013-01-09 14:47:00,62.4,23.1,30.15,NE,42,1.0,4.0,22,0.00,,---,0.00,VWS V14.00,2013-01-09 21:47:00,
2013-01-09 14:52:00,60.9,23.9,30.16,SE,131,3.0,12.0,24,0.00,,---,0.00,VWS V14.00,2013-01-09 21:52:00,
2013-01-09 14:57:00,59.3,23.5,30.16,ESE,115,0.0,5.0,25,0.00,,---,0.00,VWS V14.00,2013-01-09 21:57:00,
2013-01-09 15:02:00,58.6,23.8,30.17,ENE,68,0.0,4.0,26,0.00,,---,0.00,VWS V14.00,2013-01-09 22:02:00,
2013-01-09 15:07:00,58.3,24.5,30.18,ESE,119,0.0,5.0,27,0.00,,---,0.00,VWS V14.00,2013-01-09 22:07:00,
2013-01-09 15:12:00,57.7,24.0,30.18,ESE,123,0.0,2.0,27,0.00,,---,0.00,VWS V14.00,2013-01-09 22:12:00,
2013-01-09 15:17:00,57.2,24.4,30.18,ESE,117,2.0,2.0,28,0.00,,---,0.00,VWS V14.00,2013-01-09 22:17:00,
2013-01-09 15:22:00,56.9,24.1,30.18,SE,130,0.0,5.0,28,0.00,,---,0.00,VWS V14.00,2013-01-09 22:22:00,
2013-01-09 15:28:00,56.5,23.8,30.18,SE,130,1.0,2.0,28,0.00,,---,0.00,VWS V14.00,2013-01-09 22:28:00,
2013-01-09 15:33:00,55.5,23.8,30.19,SE,126,0.0,2.0,29,0.00,,---,0.00,VWS V14.00,2013-01-09 22:33:00,
2013-01-09 15:38:00,54.9,23.3,30.19,SE,126,0.0,3.0,29,0.00,,---,0.00,VWS V14.00,2013-01-09 22:38:00,
2013-01-09 15:43:00,54.4,22.8,30.20,South,187,0.0,0.0,29,0.00,,---,0.00,VWS V14.00,2013-01-09 22:43:00,
2013-01-09 15:48:00,54.1,23.4,30.20,South,185,0.0,1.0,30,0.00,,---,0.00,VWS V14.00,2013-01-09 22:48:00,
2013-01-09 15:53:00,53.7,23.0,30.19,ESE,116,0.0,1.0,30,0.00,,---,0.00,VWS V14.00,2013-01-09 22:53:00,
2013-01-09 15:58:00,53.8,23.1,30.19,ESE,115,0.0,0.0,30,0.00,,---,0.00,VWS V14.00,2013-01-09 22:58:00,
2013-01-09 16:03:00,53.4,22.8,30.19,ESE,115,0.0,0.0,30,0.00,,---,0.00,VWS V14.00,2013-01-09 23:03:00,
2013-01-09 16:08:00,52.9,23.1,30.20,ESE,116,0.0,1.0,31,0.00,,---,0.00,VWS V14.00,2013-01-09 23:08:00,
2013-01-09 16:13:00,52.6,22.9,30.20,ESE,116,1.0,2.0,31,0.00,,---,0.00,VWS V14.00,2013-01-09 23:13:00,
2013-01-09 16:18:00,52.2,22.5,30.19,ESE,115,0.0,0.0,31,0.00,,---,0.00,VWS V14.00,2013-01-09 23:18:00,
2013-01-09 16:23:00,52.0,23.1,30.19,ESE,115,0.0,0.0,32,0.00,,---,0.00,VWS V14.00,2013-01-09 23:23:00,
2013-01-09 16:28:00,51.5,22.6,30.19,ESE,119,2.0,3.0,32,0.00,,---,0.00,VWS V14.00,2013-01-09 23:28:00,
2013-01-09 16:33:00,51.1,23.0,30.21,SE,137,2.0,2.0,33,0.00,,---,0.00,VWS V14.00,2013-01-09 23:33:00,
2013-01-09 16:38:00,50.7,22.7,30.20,ESE,109,0.0,4.0,33,0.00,,---,0.00,VWS V14.00,2013-01-09 23:38:00,
2013-01-09 16:43:00,50.3,22.3,30.21,ESE,121,0.0,0.0,33,0.00,,---,0.00,VWS V14.00,2013-01-09 23:43:00,
2013-01-09 16:48:00,50.0,22.8,30.21,ESE,121,0.0,0.0,34,0.00,,---,0.00,VWS V14.00,2013-01-09 23:48:00,
2013-01-09 16:53:00,49.4,22.2,30.22,ESE,121,0.0,0.0,34,0.00,,---,0.00,VWS V14.00,2013-01-09 23:53:00,
2013-01-09 16:58:00,48.5,22.1,30.22,ESE,121,0.0,0.0,35,0.00,,---,0.00,VWS V14.00,2013-01-09 23:58:00,
2013-01-09 17:03:00,47.8,22.2,30.23,ESE,121,0.0,0.0,36,0.00,,---,0.00,VWS V14.00,2013-01-10 00:03:00,
2013-01-09 17:08:00,48.1,21.8,30.23,ESE,123,0.0,0.0,35,0.00,,---,0.00,VWS V14.00,2013-01-10 00:08:00,
2013-01-09 17:13:00,47.3,21.7,30.23,ESE,123,0.0,0.0,36,0.00,,---,0.00,VWS V14.00,2013-01-10 00:13:00,
2013-01-09 17:18:00,46.5,21.6,30.23,ESE,123,0.0,0.0,37,0.00,,---,0.00,VWS V14.00,2013-01-10 00:18:00,
2013-01-09 17:23:00,46.1,21.3,30.25,ESE,123,0.0,0.0,37,0.00,,---,0.00,VWS V14.00,2013-01-10 00:23:00,
2013-01-09 17:28:00,45.5,21.4,30.25,ESE,123,0.0,0.0,38,0.00,,---,0.00,VWS V14.00,2013-01-10 00:28:00,
2013-01-09 17:33:00,45.0,21.5,30.24,ESE,123,0.0,0.0,39,0.00,,---,0.00,VWS V14.00,2013-01-10 00:33:00,
2013-01-09 17:38:00,44.5,21.7,30.25,ESE,123,0.0,0.0,40,0.00,,---,0.00,VWS V14.00,2013-01-10 00:38:00,
2013-01-09 17:43:00,44.0,21.8,30.26,ESE,123,0.0,1.0,41,0.00,,---,0.00,VWS V14.00,2013-01-10 00:43:00,
2013-01-09 17:48:00,44.2,22.6,30.26,ESE,123,0.0,0.0,42,0.00,,---,0.00,VWS V14.00,2013-01-10 00:48:00,
2013-01-09 17:53:00,43.9,22.9,30.26,ESE,123,0.0,0.0,43,0.00,,---,0.00,VWS V14.00,2013-01-10 00:53:00,
2013-01-09 17:58:00,43.7,23.2,30.25,ESE,123,0.0,0.0,44,0.00,,---,0.00,VWS V14.00,2013-01-10 00:58:00,
2013-01-09 18:03:00,43.2,22.8,30.27,ESE,123,0.0,0.0,44,0.00,,---,0.00,VWS V14.00,2013-01-10 01:03:00,
2013-01-09 18:08:00,42.8,23.5,30.27,ESE,123,0.0,0.0,46,0.00,,---,0.00,VWS V14.00,2013-01-10 01:08:00,
2013-01-09 18:13:00,42.5,23.7,30.27,ESE,123,0.0,0.0,47,0.00,,---,0.00,VWS V14.00,2013-01-10 01:13:00,
2013-01-09 18:18:00,42.4,24.1,30.27,North,355,0.0,0.0,48,0.00,,---,0.00,VWS V14.00,2013-01-10 01:18:00,
2013-01-09 18:23:00,42.4,24.1,30.27,North,355,0.0,0.0,48,0.00,,---,0.00,VWS V14.00,2013-01-10 01:23:00,
2013-01-09 18:28:00,42.2,24.4,30.27,North,355,0.0,0.0,49,0.00,,---,0.00,VWS V14.00,2013-01-10 01:28:00,
2013-01-09 18:33:00,41.8,24.1,30.27,North,355,0.0,0.0,49,0.00,,---,0.00,VWS V14.00,2013-01-10 01:33:00,
2013-01-09 18:38:00,41.0,23.8,30.28,North,355,0.0,0.0,50,0.00,,---,0.00,VWS V14.00,2013-01-10 01:38:00,
2013-01-09 18:43:00,40.0,23.4,30.28,North,355,0.0,0.0,51,0.00,,---,0.00,VWS V14.00,2013-01-10 01:43:00,
2013-01-09 18:48:00,39.1,23.0,30.30,North,355,0.0,0.0,52,0.00,,---,0.00,VWS V14.00,2013-01-10 01:48:00,
2013-01-09 18:53:00,38.7,23.1,30.30,North,355,0.0,0.0,53,0.00,,---,0.00,VWS V14.00,2013-01-10 01:53:00,
2013-01-09 18:58:00,38.4,22.8,30.29,North,355,0.0,0.0,53,0.00,,---,0.00,VWS V14.00,2013-01-10 01:58:00,
2013-01-09 19:03:00,38.0,22.4,30.28,North,355,0.0,0.0,53,0.00,,---,0.00,VWS V14.00,2013-01-10 02:03:00,
2013-01-09 19:08:00,37.5,22.4,30.28,North,355,0.0,0.0,54,0.00,,---,0.00,VWS V14.00,2013-01-10 02:08:00,
2013-01-09 19:13:00,37.4,22.7,30.28,North,355,0.0,0.0,55,0.00,,---,0.00,VWS V14.00,2013-01-10 02:13:00,
2013-01-09 19:18:00,37.0,22.4,30.28,North,355,0.0,0.0,55,0.00,,---,0.00,VWS V14.00,2013-01-10 02:18:00,
2013-01-09 19:23:00,36.5,22.3,30.27,North,355,0.0,0.0,56,0.00,,---,0.00,VWS V14.00,2013-01-10 02:23:00,
2013-01-09 19:28:00,36.2,22.5,30.28,North,355,0.0,0.0,57,0.00,,---,0.00,VWS V14.00,2013-01-10 02:28:00,
2013-01-09 19:33:00,36.1,22.4,30.28,North,355,0.0,0.0,57,0.00,,---,0.00,VWS V14.00,2013-01-10 02:33:00,
2013-01-09 19:38:00,35.7,22.0,30.28,North,355,0.0,0.0,57,0.00,,---,0.00,VWS V14.00,2013-01-10 02:38:00,
2013-01-09 19:43:00,35.2,21.9,30.28,North,355,0.0,0.0,58,0.00,,---,0.00,VWS V14.00,2013-01-10 02:43:00,
2013-01-09 19:48:00,34.8,22.0,30.28,North,355,0.0,0.0,59,0.00,,---,0.00,VWS V14.00,2013-01-10 02:48:00,
2013-01-09 19:53:00,34.3,21.9,30.30,North,355,0.0,0.0,60,0.00,,---,0.00,VWS V14.00,2013-01-10 02:53:00,
2013-01-09 19:58:00,34.4,22.0,30.30,North,355,0.0,0.0,60,0.00,,---,0.00,VWS V14.00,2013-01-10 02:58:00,
2013-01-09 20:03:00,34.6,22.2,30.23,North,355,0.0,0.0,60,0.00,,---,0.00,VWS V14.00,2013-01-10 03:03:00,
2013-01-09 20:09:00,34.6,21.8,30.23,North,355,0.0,0.0,59,0.00,,---,0.00,VWS V14.00,2013-01-10 03:09:00,
2013-01-09 20:14:00,34.4,21.2,30.24,North,355,0.0,0.0,58,0.00,,---,0.00,VWS V14.00,2013-01-10 03:14:00,
2013-01-09 20:19:00,34.5,20.4,30.22,North,355,0.0,0.0,56,0.00,,---,0.00,VWS V14.00,2013-01-10 03:19:00,
2013-01-09 20:24:00,34.7,19.8,30.22,North,355,0.0,0.0,54,0.00,,---,0.00,VWS V14.00,2013-01-10 03:24:00,
2013-01-09 20:29:00,35.2,19.4,30.21,North,355,0.0,0.0,52,0.00,,---,0.00,VWS V14.00,2013-01-10 03:29:00,
2013-01-09 20:34:00,35.6,19.3,30.21,North,355,0.0,0.0,51,0.00,,---,0.00,VWS V14.00,2013-01-10 03:34:00,
2013-01-09 20:39:00,35.6,18.8,30.21,North,355,0.0,0.0,50,0.00,,---,0.00,VWS V14.00,2013-01-10 03:39:00,
2013-01-09 20:44:00,35.5,18.7,30.20,North,355,0.0,0.0,50,0.00,,---,0.00,VWS V14.00,2013-01-10 03:44:00,
2013-01-09 20:49:00,35.1,18.4,30.20,North,355,0.0,1.0,50,0.00,,---,0.00,VWS V14.00,2013-01-10 03:49:00,
2013-01-09 20:54:00,35.4,18.1,30.19,North,355,0.0,0.0,49,0.00,,---,0.00,VWS V14.00,2013-01-10 03:54:00,
2013-01-09 21:00:00,34.9,18.2,30.19,North,355,0.0,0.0,50,0.00,,---,0.00,VWS V14.00,2013-01-10 04:00:00,
2013-01-09 21:05:00,34.4,18.2,30.15,North,355,0.0,0.0,51,0.00,,---,0.00,VWS V14.00,2013-01-10 04:05:00,
2013-01-09 21:10:00,34.2,18.0,30.14,North,355,0.0,0.0,51,0.00,,---,0.00,VWS V14.00,2013-01-10 04:10:00,
2013-01-09 21:16:00,33.9,17.7,30.14,North,355,0.0,0.0,51,0.00,,---,0.00,VWS V14.00,2013-01-10 04:16:00,
2013-01-09 21:21:00,33.4,17.7,30.15,North,355,0.0,0.0,52,0.00,,---,0.00,VWS V14.00,2013-01-10 04:21:00,
2013-01-09 21:26:00,33.2,17.5,30.15,North,355,0.0,0.0,52,0.00,,---,0.00,VWS V14.00,2013-01-10 04:26:00,
2013-01-09 21:32:00,32.8,17.6,30.14,North,355,0.0,0.0,53,0.00,,---,0.00,VWS V14.00,2013-01-10 04:32:00,
2013-01-09 21:37:00,33.2,17.5,30.14,North,355,0.0,0.0,52,0.00,,---,0.00,VWS V14.00,2013-01-10 04:37:00,
2013-01-09 21:42:00,33.2,17.5,30.14,North,355,0.0,0.0,52,0.00,,---,0.00,VWS V14.00,2013-01-10 04:42:00,
2013-01-09 21:47:00,33.2,17.0,30.14,North,355,0.0,0.0,51,0.00,,---,0.00,VWS V14.00,2013-01-10 04:47:00,
2013-01-09 21:52:00,33.2,17.0,30.13,North,355,0.0,0.0,51,0.00,,---,0.00,VWS V14.00,2013-01-10 04:52:00,
2013-01-09 21:57:00,33.2,17.0,30.13,North,355,0.0,0.0,51,0.00,,---,0.00,VWS V14.00,2013-01-10 04:57:00,
2013-01-09 22:00:00,33.2,17.0,30.13,North,355,0.0,1.0,51,0.00,,---,0.00,VWS V14.00,2013-01-10 05:00:00,
2013-01-09 22:02:00,33.3,17.1,30.13,North,355,0.0,0.0,51,0.00,,---,0.00,VWS V14.00,2013-01-10 05:02:00,
2013-01-09 22:03:00,33.3,17.1,30.11,North,355,0.0,0.0,51,0.00,,---,0.00,VWS V14.00,2013-01-10 05:03:00,
2013-01-09 22:07:00,33.3,17.1,30.10,North,360,0.0,1.0,51,0.00,,---,0.00,VWS V14.00,2013-01-10 05:07:00,
2013-01-09 22:12:00,33.4,17.2,30.10,North,360,0.0,0.0,51,0.00,,---,0.00,VWS V14.00,2013-01-10 05:12:00,
2013-01-09 22:17:00,33.3,16.7,30.10,North,360,0.0,0.0,50,0.00,,---,0.00,VWS V14.00,2013-01-10 05:17:00,
2013-01-09 22:22:00,33.2,16.6,30.10,NNW,348,0.0,0.0,50,0.00,,---,0.00,VWS V14.00,2013-01-10 05:22:00,
2013-01-09 22:27:00,33.2,16.6,30.10,NNW,348,0.0,0.0,50,0.00,,---,0.00,VWS V14.00,2013-01-10 05:27:00,
2013-01-09 22:32:00,33.2,16.6,30.10,North,349,0.0,0.0,50,0.00,,---,0.00,VWS V14.00,2013-01-10 05:32:00,
2013-01-09 22:37:00,33.5,16.9,30.10,North,350,0.0,0.0,50,0.00,,---,0.00,VWS V14.00,2013-01-10 05:37:00,
2013-01-09 22:42:00,34.4,17.2,30.08,West,277,0.0,0.0,49,0.00,,---,0.00,VWS V14.00,2013-01-10 05:42:00,
2013-01-09 22:47:00,35.1,17.4,30.08,West,277,0.0,1.0,48,0.00,,---,0.00,VWS V14.00,2013-01-10 05:47:00,
2013-01-09 22:52:00,35.3,17.1,30.08,West,278,0.0,3.0,47,0.00,,---,0.00,VWS V14.00,2013-01-10 05:52:00,
2013-01-09 22:57:00,35.5,17.3,30.07,West,278,0.0,0.0,47,0.00,,---,0.00,VWS V14.00,2013-01-10 05:57:00,
2013-01-09 23:02:00,35.4,17.2,30.07,West,277,1.0,2.0,47,0.00,,---,0.00,VWS V14.00,2013-01-10 06:02:00,
2013-01-09 23:07:00,35.5,17.3,30.04,SE,144,0.0,1.0,47,0.00,,---,0.00,VWS V14.00,2013-01-10 06:07:00,
2013-01-09 23:12:00,35.5,17.3,30.03,SSE,152,0.0,0.0,47,0.00,,---,0.00,VWS V14.00,2013-01-10 06:12:00,
2013-01-09 23:17:00,35.3,17.1,30.03,SSE,152,0.0,0.0,47,0.00,,---,0.00,VWS V14.00,2013-01-10 06:17:00,
2013-01-09 23:22:00,35.2,17.0,30.03,SSE,152,0.0,0.0,47,0.00,,---,0.00,VWS V14.00,2013-01-10 06:22:00,
2013-01-09 23:27:00,35.4,17.2,30.03,South,190,0.0,1.0,47,0.00,,---,0.00,VWS V14.00,2013-01-10 06:27:00,
2013-01-09 23:32:00,35.7,17.5,30.01,South,190,1.0,1.0,47,0.00,,---,0.00,VWS V14.00,2013-01-10 06:32:00,
2013-01-09 23:37:00,35.9,17.6,30.01,SSE,168,1.0,4.0,47,0.00,,---,0.00,VWS V14.00,2013-01-10 06:37:00,
2013-01-09 23:42:00,36.2,17.9,30.01,SSE,160,2.0,3.0,47,0.00,,---,0.00,VWS V14.00,2013-01-10 06:42:00,
2013-01-09 23:47:00,36.8,18.0,30.01,South,186,0.0,1.0,46,0.00,,---,0.00,VWS V14.00,2013-01-10 06:47:00,
2013-01-09 23:52:00,36.8,18.0,30.01,South,173,2.0,3.0,46,0.00,,---,0.00,VWS V14.00,2013-01-10 06:52:00,
2013-01-09 23:57:00,36.8,18.0,30.01,South,172,1.0,1.0,46,0.00,,---,0.00,VWS V14.00,2013-01-10 06:57:00,